Location: Unspecified
(0.0000°N, 0.0000°E)
Time: 09:37:13
(UTC+02:00)

Cosmos 1340 - Visible Passes

Search period start: 27 June 2016 00:00
Search period end: 07 July 2016 00:00
Orbit: 509 x 512 km, 81.2° (Epoch: 26 June)

Date Brightness Start Highest point End Pass type
(mag) Time Alt. Az. Time Alt. Az. Time Alt. Az.
28 Jun 4.7 07:32:34 10° NNE 07:36:02 34° E 07:39:30 10° SSE visible
29 Jun 5.2 07:16:08 10° NNE 07:19:18 25° E 07:22:28 10° SE visible
30 Jun 5.7 06:59:49 10° NE 07:02:33 19° E 07:05:16 10° SE visible
30 Jun 6.1 20:27:57 10° WSW 20:29:39 13° W 20:31:23 10° WNW visible
01 Jul 5.9 06:43:45 10° NE 06:45:48 14° E 06:47:51 10° ESE visible
02 Jul 6.2 06:28:25 10° ENE 06:29:03 10° E 06:29:41 10° E visible
04 Jul 3.2 07:27:30 10° NNW 07:30:59 36° W 07:34:30 10° SSW visible
05 Jul 2.8 07:10:34 10° NNW 07:14:14 50° W 07:17:56 10° S visible
06 Jul 2.5 06:53:43 10° N 06:57:29 71° W 07:01:16 10° S visible
